Regional Weather Roundup
Issued by NWS Kansas City/Pleasant Hill, MO

Home | Current Version | Previous Version | Graphics & Text | Print | Product List | Glossary Off
Versions: 1 2 3 4 5 6 7 8 9 10 11 12 13 14 15 16 17 18 19 20 21 22 23 24 25 26 27 28 29 30 31 32 33 34 35 36 37 38 39 40 41 42 43 44 45 46 47 48 49 50

878
ASUS43 KEAX 231010
RWREAX

WEATHER ROUNDUP FOR EASTERN KANSAS AND NORTHWEST MISSOURI
NATIONAL WEATHER SERVICE KANSAS CITY/PLEASANT HILL MO
500 AM CDT TUE MAY 23 2017

KSZ040-057-103>105-MOZ028-029-037-043-231100-
...KANSAS CITY METROPOLITAN AREA...

CITY           SKY/WX    TMP DP  RH WIND       PRES   REMARKS
K.C. INTL      CLOUDY    56  56 100 W7        29.86S FOG
K.C. DOWNTOWN  CLOUDY    57  56  96 W7        29.86S
LEES SUMMIT    CLOUDY    56  56 100 W6        29.86F FOG
OLATHE - IXD   CLOUDY    55  54  96 SW5       29.86F FOG
OLATHE - OJC   CLOUDY    54  54 100 W6        29.86F FOG
LAWRENCE       CLOUDY    55  55 100 NW10      29.87S

$$

MOZ001>008-011>017-020>025-030>033-038>040-044>046-053-054-231100-
...NORTHERN AND CENTRAL MISSOURI...

CITY           SKY/WX    TMP DP  RH WIND       PRES   REMARKS
ST. JOSEPH     PTCLDY    55  54  96 NW12      29.88S
MOSBY          CLOUDY    55  55 100 CALM      29.86F FOG
WARRENSBURG    MOCLDY    54  54 100 CALM      29.84F
WHITEMAN AFB   MOCLDY    54  54 100 N3        29.83F
CLINTON        CLOUDY    57  55  94 NW5       29.85S
SEDALIA        LGT RAIN  57  57 100 NE3       29.85S
WARSAW         NOT AVBL
CHILLICOTHE      N/A     57  56  96 SW3       29.85F
KIRKSVILLE     CLOUDY    57  56  96 SW7       29.83F

$$

MOZ041-047>049-056>058-063>065-088>090-097-231100-
...EASTERN AND SOUTHERN MISSOURI...

CITY           SKY/WX    TMP DP  RH WIND       PRES   REMARKS
ST. LOUIS INTL CLOUDY    63  56  78 E7        29.84F
SPIRIT OF STL  CLOUDY    61  58  90 CALM      29.82F
COLUMBIA       CLOUDY    57  56  96 N3        29.84S
JEFFERSON CITY LGT RAIN  60  54  80 E6        29.82F
ROLLA          CLOUDY    58  53  84 S8        29.81F
OSAGE BEACH    LGT RAIN  57  56  96 CALM      29.83F
SPRINGFIELD    CLOUDY    59  56  89 CALM      29.83F
BRANSON        CLOUDY    59  54  82 CALM      29.86S
JOPLIN         CLEAR     59  57  93 W5        29.85F
WEST PLAINS    CLOUDY    59  53  80 W3        29.85F

$$

IAZ060-094-KSZ022-034>040-054-083-096-NEZ052-066-093-231100-
...KANSAS...SOUTHEAST NEBRASKA AND IOWA...

CITY           SKY/WX    TMP DP  RH WIND       PRES   REMARKS
TOPEKA         LGT RAIN  55  54  96 NW8       29.89S
MANHATTAN      LGT RAIN  54  51  90 VRB5      29.92S
EMPORIA        CLOUDY    55  52  89 N14G21    29.88F
CHANUTE        MOCLDY    58  55  90 NW7       29.87S
WICHITA        CLOUDY    55  53  93 N13       29.92R
OMAHA          PTCLDY    47  42  83 NW5       29.91R
LINCOLN        PTCLDY    50  44  80 NW8       29.95S
FALLS CITY     CLOUDY    53  48  83 NW10      29.90R
LAMONI         CLOUDY    51  51 100 W6        29.85S
DES MOINES     MOCLDY    53  49  86 NW8       29.83R

$$





USA.gov is the U.S. government's official web portal to all federal, state and local government web resources and services.